カタログに戻る

AMOS 2

運用中通信GEO
NORAD 28132·PAYLOAD·🇮🇱 Israel

打ち上げ Dec 27, 2003 から Baikonur Cosmodrome

Loading…

TLE

最新Source: Space-Track

元期: Sep 14, 2026, 10:00 UTC

1 28132U 03059A   26257.41730446 -.00000143  00000-0  00000-0 0  9993
2 28132   8.7333  61.9621 0003973 140.0348 224.7757  0.99394814 82932

AllMySatでAMOS 2をリアルタイム追跡

Download on the App Store